Weather History for Kirksville, MO

Change the Weather History Date:

Sunday, May 26, 2013

  Actual Average Record
Temperature  
Mean Temperature 63 °F 65 °F  
Max Temperature 74 °F 76 °F 92 °F (1926)
Min Temperature 51 °F 55 °F 34 °F (1925)
Degree Days  
Heating Degree Days 2 2  
Month to date heating degree days 189 141  
Since 1 July heating degree days 6035 5831  
Cooling Degree Days 0 3  
Month to date cooling degree days 41 40  
Year to date cooling degree days 51 47  
Growing Degree Days 12 (Base 50)    
Moisture  
Dew Point 59 °F    
Average Humidity 87    
Maximum Humidity 100    
Minimum Humidity 73    
Precipitation  
Precipitation 0.40 in 0.15 in 2.31 in (1937)
Month to date precipitation 3.62 4.13  
Year to date precipitation 19.59 13.32  
Sea Level Pressure  
Sea Level Pressure 30.06 in    
Wind  
Wind Speed 9 mph (ESE)    
Max Wind Speed 21 mph    
Max Gust Speed 29 mph    
Visibility 9 miles    
Events Rain , Thunderstorm    
T = Trace of Precipitation, MM = Missing Value Source: NWS Daily Summary

Daily Weather History Graph

Daily Weather History Graph

Search for Another Location

Airport:

Trip Planner

Search our weather history database for the weather conditions in past years. The results will help you decide how hot, cold, wet, or windy it might be!

Date:

Astronomy

May. 26, 2013 Rise Set
Actual Time 5:46 AM CDT 8:28 PM CDT
Civil Twilight 5:14 AM CDT 9:00 PM CDT
Nautical Twilight 4:34 AM CDT 9:40 PM CDT
Astronomical Twilight 3:49 AM CDT 10:25 PM CDT
Moon 10:16 PM CDT 7:15 AM CDT
Length of Visible Light 15h 46m
Length of Day
14h 42m
Waning Gibbous, 96% of the Moon is Illuminated
May 26
Waning Gibbous
May 31
Last Quarter
Jun 8
New
Jun 16
First Quarter
Jun 23
Full

Hourly Weather History & Observations

Time (CDT) Temp. Dew Point Humidity Pressure Visibility Wind Dir Wind Speed Gust Speed Precip Events Conditions
12:42 AM 53.6 °F 51.8 °F 94% 30.14 in 10.0 mi East 11.5 mph - N/A   Scattered Clouds
12:55 AM 53.1 °F 51.1 °F 93% 30.16 in 10.0 mi East 9.2 mph - N/A   Scattered Clouds
1:55 AM 52.0 °F 51.1 °F 97% 30.15 in 10.0 mi East 10.4 mph - N/A   Clear
2:55 AM 53.1 °F 50.0 °F 89% 30.14 in 10.0 mi East 8.1 mph - N/A   Mostly Cloudy
3:55 AM 53.1 °F 50.0 °F 89% 30.12 in 10.0 mi ESE 10.4 mph - N/A   Partly Cloudy
4:55 AM 53.1 °F 48.9 °F 86% 30.13 in 10.0 mi ESE 6.9 mph - N/A   Mostly Cloudy
5:55 AM 51.1 °F 48.9 °F 92% 30.11 in 10.0 mi ESE 5.8 mph - N/A   Clear
6:55 AM 52.0 °F 48.9 °F 89% 30.12 in 10.0 mi ESE 8.1 mph - N/A   Clear
7:55 AM 54.0 °F 51.1 °F 90% 30.14 in 10.0 mi ESE 6.9 mph - N/A   Scattered Clouds
8:55 AM 55.9 °F 52.0 °F 87% 30.14 in 10.0 mi East 8.1 mph - N/A   Clear
9:55 AM 59.0 °F 55.0 °F 87% 30.12 in 10.0 mi ESE 9.2 mph - N/A   Partly Cloudy
10:55 AM 62.1 °F 55.9 °F 80% 30.14 in 10.0 mi East 8.1 mph - N/A   Mostly Cloudy
11:55 AM 63.0 °F 57.9 °F 84% 30.11 in 10.0 mi East 11.5 mph - 0.00 in   Scattered Clouds
12:55 PM 68.0 °F 61.0 °F 78% 30.09 in 10.0 mi ESE 12.7 mph - N/A   Partly Cloudy
1:48 PM 71.6 °F 62.6 °F 73% 30.09 in 10.0 mi ESE 9.2 mph - N/A   Mostly Cloudy
1:55 PM 71.1 °F 63.0 °F 75% 30.09 in 10.0 mi ESE 11.5 mph - N/A   Mostly Cloudy
2:55 PM 73.0 °F 64.0 °F 73% 30.05 in 10.0 mi ESE 10.4 mph 18.4 mph N/A   Partly Cloudy
3:25 PM 73.4 °F 66.2 °F 78% 30.03 in 10.0 mi ESE 11.5 mph - N/A Thunderstorm Scattered Clouds
3:40 PM 73.4 °F 64.4 °F 73% 30.03 in 10.0 mi ESE 9.2 mph - N/A   Mostly Cloudy
3:55 PM 72.0 °F 64.9 °F 78% 30.04 in 10.0 mi ESE 9.2 mph - N/A   Overcast
4:55 PM 72.0 °F 66.0 °F 81% 30.01 in 10.0 mi ESE 10.4 mph - N/A   Overcast
5:55 PM 73.0 °F 66.9 °F 81% 30.00 in 10.0 mi SE 10.4 mph - N/A   Scattered Clouds
6:55 PM 71.1 °F 66.9 °F 87% 29.99 in 10.0 mi ESE 8.1 mph - N/A   Clear
7:55 PM 69.1 °F 66.0 °F 90% 29.98 in 10.0 mi ESE 5.8 mph - N/A Thunderstorm Partly Cloudy
8:13 PM 69.8 °F 66.2 °F 88% 29.99 in 9.0 mi East 5.8 mph - N/A Thunderstorm Mostly Cloudy
8:34 PM 69.8 °F 66.2 °F 88% 29.98 in 10.0 mi East 5.8 mph - N/A   Overcast
8:55 PM 69.1 °F 66.0 °F 90% 29.99 in 9.0 mi East 4.6 mph - N/A Thunderstorm Overcast
9:55 PM 66.9 °F 66.0 °F 97% 30.01 in 5.0 mi Calm Calm - 0.05 in Rain , Thunderstorm Light Rain
10:39 PM 64.4 °F 64.4 °F 100% 30.03 in 4.0 mi North 18.4 mph 28.8 mph 0.02 in Rain , Thunderstorm Light Thunderstorms and Rain
10:55 PM 64.0 °F 63.0 °F 96% 30.02 in 4.0 mi North 11.5 mph - 0.05 in Rain , Thunderstorm Thunderstorms and Rain
11:51 PM 62.6 °F 60.8 °F 94% 29.99 in 2.5 mi South 12.7 mph - 0.14 in Rain , Thunderstorm Thunderstorms and Rain
11:55 PM 63.0 °F 62.1 °F 97% 29.98 in 1.8 mi South 15.0 mph - 0.16 in Rain , Thunderstorm Thunderstorms and Rain
11:57 PM 62.6 °F 62.6 °F 100% 29.97 in 2.0 mi South 13.8 mph 20.7 mph 0.01 in Rain , Thunderstorm Thunderstorms and Rain